Weather observations for the past three days for
Alexandria, Chandler Field
Imperial (Metric)
Date Time (cdt) Wind (mph) Vis. (mi.) Weather Sky Cond. Temperature (ºF) Relative Humidity Wind Chill (°F) Heat Index (°F) Pressure Precipitation (in)
Air Dwpt 6 hour altimeter (in) sea level (mb) 1 hr 3 hr 6 hr
Max. Min.
25 03:53 NW 5 10.00 Fair CLR 68 55.9 65% 29.74 1006.4
25 02:53 N 12 10.00 Fair CLR 72 57.9 61% 29.71 1005.1
25 01:53 NW 14 G 25 10.00 A Few Clouds FEW030 73.9 70 88% 29.69 1004.3
25 00:53 W 5 10.00 Fair CLR 70 69.1 82 70 97% 29.66 1003.7
24 23:53 NW 3 10.00 A Few Clouds FEW037 73 70 90% 29.67 1003.9
24 22:53 Calm 10.00 Partly Cloudy SCT038 72 70 94% 29.66 1003.5
24 21:53 Calm 10.00 Fair CLR 73.9 71.1 91% 29.64 1003.1
24 20:53 E 5 10.00 Fair CLR 78.1 70 76% 80 29.63 1002.5
24 19:53 E 6 10.00 Mostly Cloudy BKN060 81 71.1 72% 85 29.63 1002.7
24 18:53 SE 10 10.00 Fair CLR 82 70 84 79 67% 86 29.64 1003.0
24 17:53 SE 8 10.00 Overcast OVC038 81 69.1 67% 84 29.66 1003.8
24 16:53 SE 16 G 23 10.00 Mostly Cloudy BKN033 82.9 69.1 63% 87 29.66 1003.9
24 15:53 SE 17 G 29 10.00 Partly Cloudy SCT032 82 68 63% 85 29.68 1004.6
24 14:53 SE 13 G 25 10.00 Partly Cloudy SCT032 84 68 59% 87 29.72 1005.8
24 13:53 SE 22 G 32 10.00 Fair and Breezy CLR 81 66 61% 83 29.69 1004.8
24 12:53 SE 23 G 33 10.00 Fair and Breezy CLR 80.1 64 80.1 66 58% 82 29.72 1005.8
24 11:53 E 13 10.00 Fair CLR 75.9 64 67% 78 29.78 1007.9
24 10:53 E 13 10.00 Mostly Cloudy BKN048 75 64 69% 77 29.83 1009.4
24 09:53 E 13 G 24 10.00 Mostly Cloudy BKN048 75 62.1 64% 77 29.79 1008.3
24 08:53 SE 12 10.00 Mostly Cloudy BKN047 73 60.1 64% 29.82 1009.0
24 07:53 SE 9 10.00 Mostly Cloudy BKN050 70 59 68% 29.84 1009.9
24 06:53 SE 9 10.00 Fair CLR 66 57.9 66 63 75% 29.83 1009.5
24 05:53 SE 8 10.00 Fair CLR 63 57 81% 29.83 1009.6
24 04:53 SE 8 10.00 Fair CLR 63 55.9 78% 29.83 1009.5
24 03:53 SE 9 10.00 Fair CLR 64 57 78% 29.85 1010.2
24 02:53 SE 8 10.00 Fair CLR 64.9 57 76% 29.87 1010.8
24 01:53 SE 8 10.00 Fair CLR 66 57.9 75% 29.89 1011.5
24 00:53 E 5 10.00 Fair CLR 64.9 59 80.1 64.9 81% 29.9 1011.9
23 23:53 E 5 10.00 Fair CLR 66.9 59 76% 29.9 1012.0
23 22:53 E 3 10.00 Fair CLR 68 59 73% 29.9 1011.9
23 21:53 NE 5 10.00 Fair CLR 69.1 60.1 73% 29.89 1011.6
23 20:53 N 5 10.00 Fair CLR 73.9 60.1 62% 29.88 1011.5
23 19:53 N 5 10.00 Fair CLR 78.1 57.9 50% 79 29.89 1011.6
23 18:53 NW 8 10.00 Fair CLR 80.1 57 82 77 45% 80 29.89 1011.6
23 17:53 NW 9 10.00 Fair CLR 81 57 44% 81 29.9 1011.8
23 16:53 NW 12 G 21 10.00 A Few Clouds FEW055 81 57.9 45% 81 29.89 1011.6
23 15:53 NW 12 10.00 Fair CLR 81 57.9 45% 81 29.89 1011.5
23 14:53 NW 14 10.00 Partly Cloudy FEW047 SCT055 80.1 60.1 51% 81 29.89 1011.6
23 13:53 W 13 10.00 A Few Clouds FEW041 78.1 60.1 54% 79 29.9 1011.9
23 12:53 W 10 10.00 Partly Cloudy SCT038 SCT047 78.1 63 79 64 60% 80 29.9 1012.0
23 11:53 W 9 10.00 Fair CLR 77 63 62% 79 29.9 1012.1
23 10:53 NW 9 10.00 Fair CLR 73.9 63 69% 29.9 1012.3
23 09:53 W 9 10.00 Fair CLR 71.1 64 79% 29.9 1012.3
23 08:53 W 6 10.00 Partly Cloudy SCT004 68 64.9 90% 29.9 1012.2
23 07:53 W 7 5.00 Fog/Mist OVC003 66 64.9 96% 29.9 1012.2
23 06:53 W 8 5.00 Fog/Mist OVC002 64 63 64 61 96% 29.89 1011.9
23 05:53 W 6 0.50 Fog VV002 63 62.1 97% 29.88 1011.6
23 04:53 SW 6 8.00 Partly Cloudy SCT003 61 60.1 97% 29.87 1011.5
23 03:53 SW 6 10.00 Partly Cloudy SCT026 62.1 61 96% 29.87 1011.4
23 02:53 SW 6 9.00 Mostly Cloudy BKN032 62.1 61 96% 29.87 1011.5
23 01:53 Calm 5.00 Fog/Mist SCT039 BKN047 61 61 100% 29.88 1011.8
23 00:53 Calm 9.00 Mostly Cloudy BKN065 62.1 61 66 60.1 96% 29.89 1012.0
22 23:53 Calm 10.00 Overcast OVC055 61 60.1 97% 29.89 1012.3
22 22:53 SW 3 10.00 Fair CLR 60.1 59 96% 29.89 1012.1
22 21:53 NE 3 10.00 Fair CLR 63 61 93% 29.88 1011.7
22 20:53 Calm 10.00 Overcast BKN011 BKN015 OVC021 66 63 90% 29.87 1011.3
22 19:53 N 6 10.00 Overcast OVC014 66 62.1 87% 29.87 1011.2
22 18:53 NE 5 10.00 Overcast OVC011 66 63 66 64 90% 29.86 1011.0 0.08
22 17:53 N 6 10.00 Overcast OVC010 66 62.1 87% 29.87 1011.1
22 16:53 N 6 10.00 Overcast OVC010 66 63 90% 29.86 1011.1
22 15:53 N 7 10.00 Overcast SCT008 BKN012 OVC065 64.9 63 93% 29.87 1011.4 0.03 0.08
22 14:53 N 7 10.00 Overcast OVC007 64.9 62.1 90% 29.87 1011.2
22 13:53 NE 10 10.00 Mostly Cloudy BKN006 64.9 63 93% 29.82 1009.7 0.05
22 12:53 NE 3 3.00 Rain Fog/Mist OVC011 64 62.1 64.9 63 93% 29.88 1011.7 0.16 0.16
22 11:53 N 3 10.00 Overcast OVC009 64.9 62.1 90% 29.88 1011.5
22 10:53 NE 5 10.00 Overcast OVC004 64 62.1 93% 29.88 1011.6
22 09:53 NE 7 9.00 Overcast OVC004 64 62.1 93% 29.87 1011.4
22 08:53 NE 8 10.00 Overcast OVC005 64 62.1 93% 29.89 1012.1
22 07:53 E 7 1.75 Fog/Mist OVC004 63 62.1 97% 29.91 1012.5
22 06:53 NE 7 5.00 Fog/Mist OVC005 63 62.1 64.9 63 97% 29.91 1012.5
22 05:53 NE 10 5.00 Fog/Mist OVC004 63 62.1 97% 29.91 1012.5
22 04:53 NE 7 8.00 Overcast OVC004 63 62.1 97% 29.92 1012.9
Date Time (cdt) Wind (mph) Vis. (mi.) Weather Sky Cond. Air Dwpt Max. Min. Relative Humidity Wind Chill (°F) Heat Index (°F) altimeter (in) sea level (mb) 1 hr 3 hr 6 hr
6 hour
Temperature (ºF) Pressure Precipitation (in)